Change the Weather History Date:

Wednesday, October 3, 2012

  Actual Average Record
Temperature  
Mean Temperature 63 °F 62 °F  
Max Temperature 83 °F 74 °F 100 °F (1954)
Min Temperature 43 °F 51 °F 32 °F (1987)
Degree Days  
Heating Degree Days 2 5  
Month to date heating degree days 14 15  
Since 1 July heating degree days 49 67  
Cooling Degree Days 0 2  
Month to date cooling degree days 0 8  
Year to date cooling degree days 2037 1620  
Growing Degree Days 12 (Base 50)    
Moisture  
Dew Point 43 °F    
Average Humidity 55    
Maximum Humidity 83    
Minimum Humidity 26    
Precipitation  
Precipitation 0.00 in 0.09 in 2.60 in (1955)
Month to date precipitation 0.01 0.27  
Year to date precipitation 16.40 27.31  
Sea Level Pressure  
Sea Level Pressure 29.86 in    
Wind  
Wind Speed 12 mph (South)    
Max Wind Speed 25 mph    
Max Gust Speed 33 mph    
Visibility 10 miles    
Events      
T = Trace of Precipitation, MM = Missing Value Source: NWS Daily Summary

Daily Weather History Graph

Daily Weather History Graph

Search for Another Location

Airport or City:

Trip Planner

Search our weather history database for the weather conditions in past years. The results will help you decide how hot, cold, wet, or windy it might be!

Date:

Astronomy

Oct. 03, 2012 Rise Set
Actual Time 7:28 AM CDT 7:09 PM CDT
Civil Twilight 7:02 AM CDT 7:35 PM CDT
Nautical Twilight 6:31 AM CDT 8:06 PM CDT
Astronomical Twilight 6:00 AM CDT 8:37 PM CDT
Moon 9:05 PM CDT (10/3) 10:50 AM CDT (10/3)
Length of Visible Light 12h 33m
Length of Day
11h 40m
Waning Gibbous, 88% of the Moon is Illuminated
Oct 3
Waning Gibbous
Oct 8
Last Quarter
Oct 15
New
Oct 21
First Quarter
Oct 29
Full

Hourly Weather History & Observations

Time (CDT) Temp. Windchill Dew Point Humidity Pressure Visibility Wind Dir Wind Speed Gust Speed Precip Events Conditions
12:53 AM 46.9 °F - 39.0 °F 74% 29.90 in 10.0 mi South 4.6 mph - N/A   Clear
1:53 AM 46.0 °F 42.5 °F 37.9 °F 73% 29.90 in 10.0 mi South 6.9 mph - N/A   Clear
2:53 AM 46.0 °F 43.1 °F 39.0 °F 76% 29.90 in 10.0 mi South 5.8 mph - N/A   Clear
3:53 AM 46.9 °F - 39.0 °F 74% 29.89 in 10.0 mi South 8.1 mph - N/A   Clear
4:53 AM 46.0 °F 41.0 °F 39.0 °F 76% 29.90 in 10.0 mi South 10.4 mph - N/A   Clear
5:53 AM 45.0 °F 41.2 °F 39.0 °F 80% 29.91 in 10.0 mi South 6.9 mph - N/A   Clear
6:53 AM 43.0 °F 38.2 °F 37.9 °F 82% 29.92 in 10.0 mi South 8.1 mph - N/A   Clear
7:53 AM 45.0 °F 40.6 °F 39.0 °F 80% 29.92 in 10.0 mi South 8.1 mph - N/A   Clear
8:53 AM 52.0 °F - 42.1 °F 69% 29.92 in 10.0 mi South 8.1 mph - N/A   Clear
9:53 AM 63.0 °F - 43.0 °F 48% 29.91 in 10.0 mi South 10.4 mph - N/A   Clear
10:53 AM 71.1 °F - 41.0 °F 34% 29.89 in 10.0 mi South 15.0 mph 24.2 mph N/A   Clear
11:53 AM 75.9 °F - 41.0 °F 29% 29.88 in 10.0 mi South 17.3 mph 27.6 mph N/A   Clear
12:53 PM 79.0 °F - 43.0 °F 28% 29.85 in 10.0 mi South 15.0 mph 29.9 mph N/A   Clear
1:53 PM 80.1 °F - 44.1 °F 28% 29.83 in 10.0 mi South 20.7 mph 28.8 mph N/A   Clear
2:53 PM 82.0 °F - 45.0 °F 27% 29.81 in 10.0 mi South 18.4 mph 29.9 mph N/A   Clear
3:53 PM 82.9 °F - 46.0 °F 27% 29.79 in 10.0 mi South 20.7 mph 33.4 mph N/A   Clear
4:53 PM 82.0 °F - 46.0 °F 28% 29.78 in 10.0 mi South 18.4 mph 28.8 mph N/A   Clear
5:53 PM 81.0 °F - 46.9 °F 30% 29.80 in 10.0 mi South 17.3 mph 28.8 mph N/A   Clear
6:53 PM 78.1 °F - 48.0 °F 35% 29.80 in 10.0 mi South 13.8 mph 24.2 mph N/A   Clear
7:53 PM 73.4 °F - 48.2 °F 41% 29.82 in 10.0 mi SSE 13.8 mph - N/A   Clear
8:53 PM 71.1 °F - 48.9 °F 45% 29.83 in 10.0 mi SSE 12.7 mph - N/A   Clear
9:53 PM 71.1 °F - 48.9 °F 45% 29.82 in 10.0 mi South 16.1 mph 25.3 mph N/A   Clear
10:53 PM 72.0 °F - 50.0 °F 46% 29.84 in 10.0 mi South 19.6 mph 29.9 mph N/A   Clear
11:53 PM 70.0 °F - 50.0 °F 49% 29.92 in 10.0 mi Calm Calm - N/A   Clear